#timestamp,LO_Frequency,Hit,StdDev 
1633856415.1,286047000.7,N
1633856416.0,286047000.7,N
1633856435.8,286047000.7,N
1633856455.7,286047001.0,N
1633856475.5,286047000.9,N
1633856495.3,286047000.0,N
1633856515.2,286047000.6,N
1633856535.9,286047002.3,N
1633856555.7,286047000.1,N
1633856575.6,286047000.5,N
1633856595.4,286047000.6,N
1633856615.2,286046999.8,N
1633856635.1,286047002.1,N
1633856636.0,286047002.1,N
1633856655.8,286047000.9,N
1633856675.6,286047000.9,N
1633856695.5,286046999.9,N
1633856715.3,286047002.2,N
1633856735.1,286047001.9,N
1633856755.9,286047002.7,N
1633856775.7,286047001.9,N
1633856795.5,286047000.3,N
1633856815.4,286047001.0,N
1633856835.2,286047000.0,N
1633856855.0,286047002.7,Y
1633856855.9,286047002.7,P
1633856875.8,286047001.6,N
1633856895.6,286046999.8,N
1633856915.4,286047002.7,N
1633856935.3,286046999.7,N
1633856955.1,286046999.7,N
1633856975.8,286046999.9,N
1633856995.7,286047001.7,N
1633857015.5,286047003.9,Y
1633857035.3,286047000.2,P
1633857055.2,286047002.2,P
1633857075.0,286047004.0,P
1633857075.9,286047004.0,N
1633857095.7,286047004.2,N
1633857115.6,286047001.7,N
1633857135.4,286047003.0,N
1633857155.2,286047003.7,N
1633857175.1,286047001.4,N
1633857176.0,286047001.4,N
1633857195.8,286047001.3,N
1633857215.6,286047003.5,N
1633857235.5,286047003.4,N
1633857255.3,286047003.7,N
1633857275.1,286047003.3,N
1633857295.9,286047005.6,Y
1633857315.7,286047001.5,P
1633857335.5,286047003.2,P
1633857355.4,286047011.9,P
1633857375.2,286047003.2,N
1633857395.0,286047001.9,N
1633857395.9,286047001.9,N
1633857415.8,286047002.3,N
1633857435.6,286047002.5,N
1633857455.4,286047001.5,N
1633857475.3,286047004.3,N
1633857495.1,286047004.3,N
1633857515.8,286047002.8,N
1633857535.7,286046999.7,N
1633857555.5,286047002.8,N
1633857575.3,286047002.3,N
1633857595.2,286047001.9,N
1633857615.9,286047002.0,N
1633857635.7,286047005.1,N
1633857655.6,286047003.7,N
1633857675.4,286047004.4,N
1633857695.2,286047001.3,N
1633857715.1,286047003.2,N
1633857716.0,286047003.2,N
1633857735.8,286047005.2,N
1633857755.6,286047004.9,N
1633857775.5,286047004.9,N
1633857795.3,286047005.7,N
1633857815.1,286047006.0,N
1633857835.9,286047005.0,N
1633857855.7,286047004.5,N
1633857875.5,286047004.8,N
1633857895.4,286047007.2,Y
1633857915.2,286047001.8,P
1633857935.0,286046999.7,N
1633857935.9,286046999.7,N
1633857955.8,286047001.6,N
1633857975.6,286047001.8,N
1633857995.4,286047001.9,N
1633858015.3,286047001.9,N
1633858035.1,286046999.7,N
1633858036.0,286046999.7,N
1633858055.8,286047001.3,N
1633858075.7,286047003.9,Y
1633858095.5,286047001.6,P
1633858115.3,286047001.8,P
1633858135.2,286047002.3,P
1633858155.9,286047002.0,Y
1633858175.7,286047000.6,P
1633858195.6,286047000.9,N
1633858215.4,286047001.1,N
1633858235.2,286047000.3,N
1633858255.1,286047000.6,N
1633858256.0,286047000.6,N
1633858275.8,286047000.9,N
1633858295.6,286047002.3,Y
1633858315.5,286047000.8,P
1633858335.3,286047001.0,P
1633858355.1,286046998.5,P
1633858375.9,286046998.6,N
1633858395.7,286046998.5,N
1633858415.5,286046999.6,N
1633858435.4,286046999.1,N
1633858455.2,286046999.4,N
1633858475.0,286046998.4,N
1633858475.9,286046998.4,N
1633858495.8,286047000.7,N
1633858515.6,286047001.2,N
1633858535.4,286046998.1,N
1633858555.3,286046998.3,N
1633858575.1,286047000.9,N
1633858576.0,286047000.9,N
1633858595.8,286047002.2,N
1633858615.7,286047002.6,N
1633858635.5,286047001.9,N
1633858655.3,286047011.9,Y
1633858675.2,286047003.8,P
1633858695.9,286047004.0,N
1633858715.7,286047002.6,N
1633858735.6,286047002.4,N
1633858755.4,286047001.0,N
1633858775.2,286046999.8,N
1633858795.1,286047002.6,N
1633858796.0,286047002.6,N
1633858815.8,286047001.6,N
1633858835.6,286047001.8,N
1633858855.5,286047001.8,N
1633858875.3,286047001.7,N
1633858895.1,286047001.9,N
1633858915.9,286047003.2,N
1633858935.7,286047003.5,N
1633858955.5,286047003.8,Y
1633858975.4,286047000.5,P
1633858995.2,286047002.8,P
1633859015.0,286047002.0,N
1633859015.9,286047002.0,N
1633859035.8,286046999.8,N
1633859055.6,286047001.6,N
1633859075.4,286047001.4,N
1633859095.3,286047003.7,Y
1633859115.1,286047004.0,P
1633859135.8,286047002.1,N
1633859155.7,286047002.6,N
1633859175.5,286047001.3,N
1633859195.3,286047002.1,N
1633859215.2,286047003.2,Y
1633859235.0,286047002.7,P
1633859235.9,286047002.7,P
1633859255.7,286047000.8,P
1633859275.6,286047001.2,N
1633859295.4,286046998.1,N
1633859315.2,286047000.7,N
1633859335.1,286046999.9,N
1633859336.0,286046999.9,N
1633859355.8,286047000.3,N
1633859375.6,286047000.1,N
1633859395.5,286047000.0,N
1633859415.3,286047000.0,N
1633859435.1,286047000.1,N
1633859455.9,286047000.5,N
1633859475.7,286047000.7,N
1633859495.5,286047001.2,N
1633859515.4,286046998.5,N
1633859535.2,286046998.9,N
1633859555.0,286046998.7,N
1633859555.9,286046998.7,N
1633859575.8,286047000.7,N
1633859595.6,286046998.7,N
1633859615.4,286046999.2,N
1633859635.3,286046998.1,N
1633859655.1,286046998.6,N
1633859675.8,286046999.1,N
1633859695.7,286046999.5,N
1633859715.5,286046997.3,N
1633859735.3,286046997.2,N
1633859755.2,286046997.8,N
1633859775.0,286046994.9,Y
1633859775.9,286046994.9,P
1633859795.8,286046997.8,N
1633859815.6,286046996.8,N
1633859835.4,286046997.5,N
1633859855.2,286046997.4,N
1633859875.1,286046995.2,Y
1633859876.0,286046995.2,P
1633859895.8,286046998.9,N
1633859915.7,286046999.1,N
1633859935.5,286046997.4,N
1633859955.3,286046995.5,Y
1633859975.2,286046999.0,P
1633859995.9,286046999.2,N
